アサシン彗星

C/2017 O1 ( ASASSN )

English version
Home page
Updated on February 13, 2018

---------------------------------------------------------------------

・ プロフィール

発見日 2017年7月19日
発見光度 15.3等
発見者 All-Sky Automated Survey for Supernovae (ASASSN)

・ 写真集

・ 軌道要素

Epoch 2017 Oct. 14.0 TT = JDT 2458040.5
T 2017 Oct. 14.78530 TT                                 MPCW
q   1.4986834            (2000.0)            P               Q
z  +0.0023963      Peri.   20.90794     +0.72168442     -0.63351910
 +/-0.0000012      Node    25.80938     +0.50849151     +0.21172543
e   0.9964087      Incl.   39.84825     +0.46968924     +0.74419479
From 2538 observations 2017 July 19-2018 Jan. 25, mean residual 0".4.

・ 星図

・ 光度変化

        m1 = 5.0 + 5 logΔ + 20.0 log r(t + 35)

---------------------------------------------------------------------

軌道要素はM.P.E.C. 2018-B155に掲載されたものです。
星図はステラナビゲータ Ver.10 (アストロアーツ) で作成したものです。
光度グラフはComet for Windowsで作成したものです。

---------------------------------------------------------------------

Copyright(C) Seiichi Yoshida (comet@aerith.net). All rights reserved.